FW9446 Weather Reports


Display with metric or nautical units.
time (UTC)temp
F
wind
direction
speed
MPH
gust
MPH
rain 1hr
in
rain 24hr
in
rain mn
in
humidity
%
barometer
mb
20260905175057 95 0 0.0 0.0 0.00 0.00 0.00 65 1013.9
20260905174603 94 0 0.0 0.0 0.00 0.00 0.00 67 1014.0
20260905174058 94 0 0.0 0.0 0.00 0.00 0.00 63 1014.1
20260905173601 94 0 0.0 0.0 0.00 0.00 0.00 68 1014.2
20260905173109 94 0 0.0 0.0 0.00 0.00 0.00 64 1014.2
20260905172616 94 0 0.0 0.0 0.00 0.00 0.00 67 1014.3
20260905172100 93 0 0.0 0.0 0.00 0.00 0.00 67 1014.3
20260905171602 93 0 0.0 0.0 0.00 0.00 0.00 67 1014.2
20260905171058 93 0 0.0 0.0 0.00 0.00 0.00 71 1014.3
20260905170600 93 0 0.0 0.0 0.00 0.00 0.00 74 1014.3
20260905170123 92 0 0.0 0.0 0.00 0.00 0.00 69 1014.4
20260905165557 92 0 0.0 0.0 0.00 0.00 0.00 75 1014.4
20260905165059 92 0 0.0 0.0 0.00 0.00 0.00 76 1014.6
20260905164605 91 0 0.0 0.0 0.00 0.00 0.00 74 1014.7
20260905164057 91 0 0.0 0.0 0.00 0.00 0.00 74 1014.7
20260905163600 92 0 0.0 0.0 0.00 0.00 0.00 75 1014.8
20260905163105 92 0 0.0 0.0 0.00 0.00 0.00 74 1014.9
20260905162558 92 0 0.0 0.0 0.00 0.00 0.00 76 1015.1
20260905162058 91 0 0.0 0.0 0.00 0.00 0.00 73 1015.1
20260905161608 91 0 0.0 0.0 0.00 0.00 0.00 76 1015.1
20260905161058 91 0 0.0 0.0 0.00 0.00 0.00 78 1015.2
20260905160558 90 0 0.0 0.0 0.00 0.00 0.00 75 1015.3
20260905160112 90 0 0.0 0.0 0.00 0.00 0.00 75 1015.4
20260905155557 90 0 0.0 0.0 0.00 0.00 0.00 76 1015.4
20260905155057 89 0 0.0 0.0 0.00 0.00 0.00 78 1015.4
20260905154606 88 0 0.0 0.0 0.00 0.00 0.00 78 1015.4
20260905154058 88 0 0.0 0.0 0.00 0.00 0.00 79 1015.5
20260905153558 88 0 0.0 0.0 0.00 0.00 0.00 79 1015.6
20260905153103 87 0 0.0 0.0 0.00 0.00 0.00 81 1015.5
20260905152558 86 0 0.0 0.0 0.00 0.00 0.00 80 1015.5
20260905152057 85 0 0.0 0.0 0.00 0.00 0.00 82 1015.6
20260905151606 84 0 0.0 0.0 0.00 0.00 0.00 85 1015.5
20260905151057 84 0 0.0 0.0 0.00 0.00 0.00 88 1015.6
20260905150559 83 0 0.0 0.0 0.00 0.00 0.00 89 1015.6
20260905150105 82 0 0.0 0.0 0.00 0.00 0.00 88 1015.5
20260905145558 82 0 0.0 0.0 0.00 0.00 0.00 90 1015.8
20260905145101 81 0 0.0 0.0 0.00 0.00 0.00 90 1015.8
20260905144602 81 0 0.0 0.0 0.00 0.00 0.00 90 1015.8
20260905144057 80 0 0.0 0.0 0.00 0.00 0.00 92 1015.9
20260905143557 80 0 0.0 0.0 0.00 0.00 0.00 93 1015.9
20260905143110 79 0 0.0 0.0 0.00 0.00 0.00 94 1015.9
20260905142601 79 0 0.0 0.0 0.00 0.00 0.00 94 1015.9
20260905142057 79 0 0.0 0.0 0.00 0.00 0.00 95 1016.0
20260905141630 78 0 0.0 0.0 0.00 0.00 0.00 96 1016.0
20260905141059 78 0 0.0 0.0 0.00 0.00 0.00 97 1016.0
20260905140600 77 0 0.0 0.0 0.00 0.00 0.00 97 1016.0
20260905140107 77 0 0.0 0.0 0.00 0.00 0.00 97 1016.2
20260905135559 77 0 0.0 0.0 0.00 0.00 0.00 98 1016.1
20260905135058 76 0 0.0 0.0 0.00 0.00 0.00 98 1016.1
20260905134624 76 0 0.0 0.0 0.00 0.00 0.00 98 1016.1
20260905134058 76 0 0.0 0.0 0.00 0.00 0.00 99 1016.1
20260905133558 75 0 0.0 0.0 0.00 0.00 0.00 99 1016.0
20260905133112 75 0 0.0 0.0 0.00 0.00 0.00 99 1016.1
20260905132557 75 0 0.0 0.0 0.00 0.00 0.00 99 1016.2
20260905132058 75 0 0.0 0.0 0.00 0.00 0.00 99 1016.2
20260905131632 75 0 0.0 0.0 0.00 0.00 0.00 99 1016.2
20260905131058 75 0 0.0 0.0 0.00 0.00 0.00 99 1016.2
20260905130558 74 0 0.0 0.0 0.00 0.00 0.00 99 1016.2
20260905130120 74 0 0.0 0.0 0.00 0.00 0.00 99 1016.2
20260905125558 74 0 0.0 0.0 0.00 0.00 0.00 99 1016.1
20260905125058 73 0 0.0 0.0 0.00 0.00 0.00 99 1016.2
20260905124617 73 0 0.0 0.0 0.00 0.00 0.00 99 1016.2
20260905124057 73 0 0.0 0.0 0.00 0.00 0.00 99 1016.2
20260905123557 73 0 0.0 0.0 0.00 0.00 0.00 99 1016.2
20260905123117 73 0 0.0 0.0 0.00 0.00 0.00 99 1016.1
20260905122557 73 0 0.0 0.0 0.00 0.00 0.00 99 1016.0
20260905122057 72 0 0.0 0.0 0.00 0.00 0.00 99 1016.1
20260905121603 72 0 0.0 0.0 0.00 0.00 0.00 99 1016.1
20260905121058 72 0 0.0 0.0 0.00 0.00 0.00 99 1016.0
20260905120558 72 0 0.0 0.0 0.00 0.00 0.00 99 1016.1
20260905120113 72 0 0.0 0.0 0.00 0.00 0.00 99 1016.0
20260905115557 72 0 0.0 0.0 0.00 0.00 0.00 99 1016.0
20260905115057 72 0 0.0 0.0 0.00 0.00 0.00 99 1015.8
20260905114606 72 0 0.0 0.0 0.00 0.00 0.00 99 1015.8
20260905114101 72 0 0.0 0.0 0.00 0.00 0.00 99 1015.6
20260905113601 72 0 0.0 0.0 0.00 0.00 0.00 98 1015.7
20260905113117 72 0 0.0 0.0 0.00 0.00 0.00 98 1015.6
20260905112558 72 0 0.0 0.0 0.00 0.00 0.00 98 1015.5
20260905112058 72 0 0.0 0.0 0.00 0.00 0.00 99 1015.4
20260905111604 72 0 0.0 0.0 0.00 0.00 0.00 98 1015.3
20260905111057 72 0 0.0 0.0 0.00 0.00 0.00 99 1015.2
20260905110557 72 0 0.0 0.0 0.00 0.00 0.00 98 1015.1
20260905110110 72 0 0.0 0.0 0.00 0.00 0.00 98 1015.1
20260905105556 72 0 0.0 0.0 0.00 0.00 0.00 99 1015.0
20260905105100 72 0 0.0 0.0 0.00 0.00 0.00 98 1015.0
20260905104605 72 0 0.0 0.0 0.00 0.00 0.00 98 1015.0
20260905104101 72 0 0.0 0.0 0.00 0.00 0.00 98 1015.1
20260905103601 72 0 0.0 0.0 0.00 0.00 0.00 98 1014.9
20260905103108 72 0 0.0 0.0 0.00 0.00 0.00 98 1014.8
20260905102557 72 0 0.0 0.0 0.00 0.00 0.00 98 1014.8
20260905102058 72 0 0.0 0.0 0.00 0.00 0.00 98 1014.9
20260905101632 72 0 0.0 0.0 0.00 0.00 0.00 98 1014.8
20260905101101 73 0 0.0 0.0 0.00 0.00 0.00 98 1014.9
20260905100557 73 0 0.0 0.0 0.00 0.00 0.00 98 1014.9
20260905100108 73 0 0.0 0.0 0.00 0.00 0.00 98 1014.8
20260905095557 73 0 0.0 0.0 0.00 0.00 0.00 98 1014.8
20260905095057 73 0 0.0 0.0 0.00 0.00 0.00 98 1014.9
20260905094601 73 0 0.0 0.0 0.00 0.00 0.00 98 1014.7
20260905094058 73 0 0.0 0.0 0.00 0.00 0.00 98 1014.7
20260905093600 73 0 0.0 0.0 0.00 0.00 0.00 98 1014.6
20260905093109 73 0 0.0 0.0 0.00 0.00 0.00 98 1014.6
20260905092601 73 0 0.0 0.0 0.00 0.00 0.00 98 1014.6
20260905092057 73 0 0.0 0.0 0.00 0.00 0.00 98 1014.7
20260905091630 73 0 0.0 0.0 0.00 0.00 0.00 98 1014.7
20260905091058 73 0 0.0 0.0 0.00 0.00 0.00 98 1014.6
20260905090557 73 0 0.0 0.0 0.00 0.00 0.00 98 1014.7
20260905090108 73 0 0.0 0.0 0.00 0.00 0.00 98 1014.6
20260905085557 73 0 0.0 0.0 0.00 0.00 0.00 98 1014.7
20260905085102 73 0 0.0 0.0 0.00 0.00 0.00 98 1014.6
20260905084618 73 0 0.0 0.0 0.00 0.00 0.00 98 1014.5
20260905084058 73 0 0.0 0.0 0.00 0.00 0.00 98 1014.6
20260905083558 73 0 0.0 0.0 0.00 0.00 0.00 98 1014.5
20260905083107 73 0 0.0 0.0 0.00 0.00 0.00 98 1014.5
20260905082557 73 0 0.0 0.0 0.00 0.00 0.00 98 1014.5
20260905082057 73 0 0.0 0.0 0.00 0.00 0.00 98 1014.5
20260905081608 73 0 0.0 0.0 0.00 0.00 0.00 98 1014.5
20260905081057 74 0 0.0 0.0 0.00 0.00 0.00 98 1014.6
20260905080557 74 0 0.0 0.0 0.00 0.00 0.00 98 1014.6
20260905080104 74 0 0.0 0.0 0.00 0.00 0.00 98 1014.6
20260905075602 74 0 0.0 0.0 0.00 0.00 0.00 98 1014.5
20260905075057 74 0 0.0 0.0 0.00 0.00 0.00 98 1014.5
20260905074602 74 0 0.0 0.0 0.00 0.00 0.00 98 1014.4
20260905074058 74 0 0.0 0.0 0.00 0.00 0.00 98 1014.4
20260905073557 74 0 0.0 0.0 0.00 0.00 0.00 98 1014.4
20260905073106 74 0 0.0 0.0 0.00 0.00 0.00 97 1014.5
20260905072600 74 0 0.0 0.0 0.00 0.00 0.00 97 1014.5
20260905072057 74 0 0.0 0.0 0.00 0.00 0.00 97 1014.5
20260905071604 74 0 0.0 0.0 0.00 0.00 0.00 97 1014.5
20260905071059 74 0 0.0 0.0 0.00 0.00 0.00 97 1014.6
20260905070557 75 0 0.0 0.0 0.00 0.00 0.00 97 1014.5
20260905070116 75 0 0.0 0.0 0.00 0.00 0.00 97 1014.5
20260905065557 75 0 0.0 0.0 0.00 0.00 0.00 97 1014.6
20260905065057 75 0 0.0 0.0 0.00 0.00 0.00 97 1014.6
20260905064603 75 0 0.0 0.0 0.00 0.00 0.00 97 1014.6
20260905064057 75 0 0.0 0.0 0.00 0.00 0.00 97 1014.5
20260905063557 75 0 0.0 0.0 0.00 0.00 0.00 97 1014.6
20260905063102 75 0 0.0 0.0 0.00 0.00 0.00 97 1014.6
20260905062556 75 0 0.0 0.0 0.00 0.00 0.00 97 1014.6
20260905062058 75 0 0.0 0.0 0.00 0.00 0.00 97 1014.6
20260905061618 75 0 0.0 0.0 0.00 0.00 0.00 97 1014.6
20260905061057 75 0 0.0 0.0 0.00 0.00 0.00 97 1014.6
20260905060556 75 0 0.0 0.0 0.00 0.00 0.00 97 1014.6
20260905060100 75 0 0.0 0.0 0.00 0.00 0.00 97 1014.8
20260905055558 75 0 0.0 0.0 0.00 0.00 0.00 97 1014.8
20260905055057 75 0 0.0 0.0 0.00 0.00 0.00 97 1014.9
20260905054603 75 0 0.0 0.0 0.00 0.00 0.00 97 1015.0
20260905054057 76 0 0.0 0.0 0.00 0.00 0.00 97 1015.0
20260905053558 75 0 0.0 0.0 0.00 0.00 0.00 97 1015.0
20260905053113 76 0 0.0 0.0 0.00 0.00 0.00 97 1015.1
20260905052558 75 0 0.0 0.0 0.00 0.00 0.00 97 1015.0
20260905052057 76 0 0.0 0.0 0.00 0.00 0.00 97 1015.0
20260905051604 76 0 0.0 0.0 0.00 0.00 0.00 97 1015.0
20260905051056 76 0 0.0 0.0 0.00 0.00 0.00 96 1015.0
20260905050558 76 0 0.0 0.0 0.00 0.00 0.00 96 1015.0
20260905050101 76 0 0.0 0.0 0.00 0.00 0.00 96 1015.1
20260905045556 76 0 0.0 0.0 0.00 0.00 0.00 96 1015.1
20260905045056 76 0 0.0 0.0 0.00 0.00 0.00 96 1015.2
20260905044601 76 0 0.0 0.0 0.00 0.00 0.00 96 1015.3
20260905044058 76 0 0.0 0.0 0.00 0.00 0.00 96 1015.3
20260905043557 76 0 0.0 0.0 0.00 0.00 0.00 96 1015.4
20260905043109 76 0 0.0 0.0 0.00 0.00 0.00 96 1015.3
20260905042558 76 0 0.0 0.0 0.00 0.00 0.00 96 1015.3
20260905042057 76 0 0.0 0.0 0.00 0.00 0.00 96 1015.3
20260905041604 76 0 0.0 0.0 0.00 0.00 0.00 96 1015.4
20260905041056 76 0 0.0 0.0 0.00 0.00 0.00 95 1015.3
20260905040556 76 0 0.0 0.0 0.00 0.00 0.00 95 1015.4
20260905040104 76 0 0.0 0.0 0.00 0.00 0.00 95 1015.5
20260905035557 76 0 0.0 0.0 0.00 0.00 0.00 95 1015.7
20260905035057 76 0 0.0 0.0 0.00 0.00 0.00 95 1015.6
20260905034603 76 0 0.0 0.0 0.00 0.00 0.00 95 1015.6
20260905034057 76 0 0.0 0.0 0.00 0.00 0.00 95 1015.7
20260905033557 76 0 0.0 0.0 0.00 0.00 0.00 95 1015.7
20260905033110 76 0 0.0 0.0 0.00 0.00 0.00 95 1015.7
20260905032556 76 0 0.0 0.0 0.00 0.00 0.00 95 1015.6
20260905032059 76 0 0.0 0.0 0.00 0.00 0.00 95 1015.7
20260905031611 76 0 0.0 0.0 0.00 0.00 0.00 95 1015.8
20260905031056 76 0 0.0 0.0 0.00 0.00 0.00 95 1015.8
20260905030557 77 0 0.0 0.0 0.00 0.00 0.00 95 1015.9
20260905030108 77 0 0.0 0.0 0.00 0.00 0.00 94 1016.0
20260905025557 77 0 0.0 0.0 0.00 0.00 0.00 94 1015.9
20260905025057 77 0 0.0 0.0 0.00 0.00 0.00 94 1016.0
20260905024640 77 0 0.0 0.0 0.00 0.00 0.00 94 1016.0
20260905024059 77 0 0.0 0.0 0.00 0.00 0.00 94 1016.0
20260905023557 77 0 0.0 0.0 0.00 0.00 0.00 94 1016.1
20260905023111 77 0 0.0 0.0 0.00 0.00 0.00 94 1016.0
20260905022556 77 0 0.0 0.0 0.00 0.00 0.00 94 1015.9
20260905022056 77 0 0.0 0.0 0.00 0.00 0.00 94 1016.0
20260905021601 77 0 0.0 0.0 0.00 0.00 0.00 94 1015.9
20260905021056 77 0 0.0 0.0 0.00 0.00 0.00 94 1015.9
20260905020557 78 0 0.0 0.0 0.00 0.00 0.00 94 1015.9
20260905020106 78 0 0.0 0.0 0.00 0.00 0.00 94 1015.9
20260905015557 78 0 0.0 0.0 0.00 0.00 0.00 94 1015.8
20260905015059 78 0 0.0 0.0 0.00 0.00 0.00 94 1015.8
20260905014602 78 0 0.0 0.0 0.00 0.00 0.00 94 1015.9
20260905014101 78 0 0.0 0.0 0.00 0.00 0.00 93 1015.9
20260905013558 78 0 0.0 0.0 0.00 0.00 0.00 93 1015.8
20260905013117 78 0 0.0 0.0 0.00 0.00 0.00 93 1015.8
20260905012557 78 0 0.0 0.0 0.00 0.00 0.00 93 1015.7
20260905012058 78 0 0.0 0.0 0.00 0.00 0.00 92 1015.7
20260905011605 78 0 0.0 0.0 0.00 0.00 0.00 92 1015.7
20260905011057 79 0 0.0 0.0 0.00 0.00 0.00 92 1015.6
20260905010559 79 0 0.0 0.0 0.00 0.00 0.00 92 1015.5
20260905010107 79 0 0.0 0.0 0.00 0.00 0.00 92 1015.6
20260905005556 79 0 0.0 0.0 0.00 0.00 0.00 92 1015.6
20260905005058 79 0 0.0 0.0 0.00 0.00 0.00 92 1015.6
20260905004603 79 0 0.0 0.0 0.00 0.00 0.00 91 1015.5
20260905004059 79 0 0.0 0.0 0.00 0.00 0.00 91 1015.4
20260905003556 80 0 0.0 0.0 0.00 0.00 0.00 91 1015.4
20260905003105 80 0 0.0 0.0 0.00 0.00 0.00 91 1015.4
20260905002558 80 0 0.0 0.0 0.00 0.00 0.00 90 1015.3
20260905002057 80 0 0.0 0.0 0.00 0.00 0.00 90 1015.3
20260905001607 80 0 0.0 0.0 0.00 0.00 0.00 90 1015.3
20260905001057 81 0 0.0 0.0 0.00 0.00 0.00 89 1015.2
20260905000557 81 0 0.0 0.0 0.00 0.00 0.00 89 1015.2
20260904235557 81 0 0.0 0.0 0.00 0.00 0.00 89 1015.2
20260904235056 82 0 0.0 0.0 0.00 0.00 0.00 88 1015.3
20260904234601 82 0 0.0 0.0 0.00 0.00 0.00 88 1015.2
20260904234056 82 0 0.0 0.0 0.00 0.00 0.00 88 1015.1
20260904233556 83 0 0.0 0.0 0.00 0.00 0.00 87 1015.1
20260904233107 83 0 0.0 0.0 0.00 0.00 0.00 87 1014.9
20260904232555 84 0 0.0 0.0 0.00 0.00 0.00 87 1015.0
20260904232057 84 0 0.0 0.0 0.00 0.00 0.00 87 1014.8
20260904231605 84 0 0.0 0.0 0.00 0.00 0.00 86 1014.8
20260904231101 84 0 0.0 0.0 0.00 0.00 0.00 85 1014.8
20260904230558 85 0 0.0 0.0 0.00 0.00 0.00 84 1014.7
20260904230104 85 0 0.0 0.0 0.00 0.00 0.00 84 1014.7
20260904225557 85 0 0.0 0.0 0.00 0.00 0.00 84 1014.6
20260904225057 86 0 0.0 0.0 0.00 0.00 0.00 82 1014.8
20260904224601 86 0 0.0 0.0 0.00 0.00 0.00 81 1014.7
20260904224056 87 0 0.0 0.0 0.00 0.00 0.00 80 1014.7
20260904223557 87 0 0.0 0.0 0.00 0.00 0.00 79 1014.6
20260904223112 88 0 0.0 0.0 0.00 0.00 0.00 78 1014.5
20260904222557 89 0 0.0 0.0 0.00 0.00 0.00 77 1014.5
20260904222100 89 0 0.0 0.0 0.00 0.00 0.00 76 1014.4
20260904221610 90 0 0.0 0.0 0.00 0.00 0.00 75 1014.4
20260904221057 90 0 0.0 0.0 0.00 0.00 0.00 74 1014.3
20260904220557 91 0 0.0 0.0 0.00 0.00 0.00 73 1014.2
20260904220105 92 0 0.0 0.0 0.00 0.00 0.00 71 1014.2
20260904215559 93 0 0.0 0.0 0.00 0.00 0.00 71 1014.1
20260904215056 94 0 0.0 0.0 0.00 0.00 0.00 69 1014.2
20260904214607 95 0 0.0 0.0 0.00 0.00 0.00 69 1014.3
20260904214056 95 0 0.0 0.0 0.00 0.00 0.00 68 1014.3
20260904213556 95 0 0.0 0.0 0.00 0.00 0.00 67 1014.3
20260904213104 95 0 0.0 0.0 0.00 0.00 0.00 66 1014.3
20260904212558 95 0 0.0 0.0 0.00 0.00 0.00 70 1014.5
20260904212056 95 0 0.0 0.0 0.00 0.00 0.00 67 1014.6
20260904211612 96 0 0.0 0.0 0.00 0.00 0.00 68 1014.7
20260904211057 96 0 0.0 0.0 0.00 0.00 0.00 59 1014.8
20260904210559 96 0 0.0 0.0 0.00 0.00 0.00 67 1014.6
20260904210111 96 0 0.0 0.0 0.00 0.00 0.00 56 1014.7
20260904205556 96 0 0.0 0.0 0.00 0.00 0.00 66 1014.8
20260904205057 96 0 0.0 0.0 0.00 0.00 0.00 60 1014.9
20260904204602 96 0 0.0 0.0 0.00 0.00 0.00 60 1014.9
20260904204101 96 0 0.0 0.0 0.00 0.00 0.00 58 1015.0
20260904203558 96 0 0.0 0.0 0.00 0.00 0.00 57 1015.0
20260904203104 96 0 0.0 0.0 0.00 0.00 0.00 64 1015.1
20260904202557 96 0 0.0 0.0 0.00 0.00 0.00 56 1015.1
20260904202100 97 0 0.0 0.0 0.00 0.00 0.00 63 1015.1
20260904201604 96 0 0.0 0.0 0.00 0.00 0.00 63 1015.3
20260904201057 96 0 0.0 0.0 0.00 0.00 0.00 59 1015.3
20260904200556 96 0 0.0 0.0 0.00 0.00 0.00 58 1015.2
20260904195556 96 0 0.0 0.0 0.00 0.00 0.00 61 1015.6
20260904195058 96 0 0.0 0.0 0.00 0.00 0.00 57 1015.7
20260904194605 96 0 0.0 0.0 0.00 0.00 0.00 57 1015.8
20260904194058 96 0 0.0 0.0 0.00 0.00 0.00 60 1015.8
20260904193559 97 0 0.0 0.0 0.00 0.00 0.00 64 1016.0
20260904193103 96 0 0.0 0.0 0.00 0.00 0.00 57 1016.0
20260904192558 96 0 0.0 0.0 0.00 0.00 0.00 58 1016.1
20260904192058 96 0 0.0 0.0 0.00 0.00 0.00 59 1016.3
20260904191604 96 0 0.0 0.0 0.00 0.00 0.00 57 1016.4
20260904191058 96 0 0.0 0.0 0.00 0.00 0.00 60 1016.6
20260904190558 96 0 0.0 0.0 0.00 0.00 0.00 57 1016.6
20260904190107 95 0 0.0 0.0 0.00 0.00 0.00 60 1016.6
20260904185559 95 0 0.0 0.0 0.00 0.00 0.00 63 1016.6
20260904185058 95 0 0.0 0.0 0.00 0.00 0.00 64 1016.8
20260904184607 94 0 0.0 0.0 0.00 0.00 0.00 59 1016.7
20260904184059 94 0 0.0 0.0 0.00 0.00 0.00 69 1016.9
20260904183559 94 0 0.0 0.0 0.00 0.00 0.00 65 1017.0
20260904183102 94 0 0.0 0.0 0.00 0.00 0.00 66 1017.1
20260904182602 95 0 0.0 0.0 0.00 0.00 0.00 67 1017.1
20260904182058 94 0 0.0 0.0 0.00 0.00 0.00 66 1017.2
20260904181601 94 0 0.0 0.0 0.00 0.00 0.00 62 1017.2
20260904181058 94 0 0.0 0.0 0.00 0.00 0.00 68 1017.2
20260904180601 94 0 0.0 0.0 0.00 0.00 0.00 62 1017.3
20260904180112 93 0 0.0 0.0 0.00 0.00 0.00 63 1017.3
20260904175558 93 0 0.0 0.0 0.00 0.00 0.00 64 1017.5